STARLINK-4416 (53212 NORAD) Tracking and Keplerian Element Data

This shows tracking and keplerian element data for the satellite.

Feedback or suggestion? Click here.




ElementValue
Catalog53212
NameSTARLINK-4416
Epoch Orbit1072
Epoch Day270.15490184
Epoch Year2022
RAAN329.981
Inclination97.6536
Eccentricity0.0001946
Argument of Perigee127.8907
Mean Anonmoly232.2494
Mean Motion15.01270105
Decay Rate3.44E-05
L11 53212U 22084Z 22270.15490184 .00003440 00000+0 27220-3 0 9990
L22 53212 97.6536 329.9810 0001946 127.8907 232.2494 15.01270105 10725

Live tracking and technical data element details for STARLINK-4416 (NORAD 53212). STARLINK-4416 can be tracked NOW for your location showing map with azimuth and elevation plus other details from your city location.

Track the satellite on the map from your city or location and see movement details for azimuth, elevation, latitude, longitude, range, height, and movement on the map or in text.







IsCatalogInMostPopularTable: catalog: 53212, numindb: 4
Update: records affected: 1



GetName: 53212 STARLINK-4416

Hit Count: updated at: Thu, 29 Sep 2022 12:12:42 GMT